TimeAKST,TemperatureF,Dew PointF,Humidity,Sea Level PressureIn,VisibilityMPH,Wind Direction,Wind SpeedMPH,Gust SpeedMPH,PrecipitationIn,Events,Conditions,WindDirDegrees,DateUTC
12:16 AM,14.0,-7.6,38,29.81,10.0,NNW,3.5,-,N/A,,Clear,330,2014-02-11 09:16:00
12:36 AM,15.8,-7.6,35,29.81,10.0,NNW,4.6,-,N/A,,Clear,340,2014-02-11 09:36:00
12:56 AM,12.2,-7.6,41,29.81,10.0,NNE,3.5,-,N/A,,Clear,20,2014-02-11 09:56:00
1:16 AM,10.4,-7.6,44,29.81,10.0,North,5.8,-,N/A,,Clear,360,2014-02-11 10:16:00
1:36 AM,14.0,-5.8,41,29.81,10.0,North,3.5,-,N/A,,Clear,10,2014-02-11 10:36:00
1:56 AM,12.2,-9.4,38,29.81,10.0,North,4.6,-,N/A,,Clear,350,2014-02-11 10:56:00
2:16 AM,14.0,-7.6,38,29.81,10.0,NNW,5.8,-,N/A,,Clear,340,2014-02-11 11:16:00
2:36 AM,12.2,-9.4,38,29.81,10.0,NNW,3.5,-,N/A,,Clear,340,2014-02-11 11:36:00
2:56 AM,14.0,-7.6,38,29.81,10.0,North,3.5,-,N/A,,Clear,350,2014-02-11 11:56:00
3:16 AM,10.4,-9.4,41,29.81,10.0,Calm,Calm,-,N/A,,Clear,0,2014-02-11 12:16:00
3:36 AM,6.8,-5.8,56,29.81,10.0,North,3.5,-,N/A,,Clear,350,2014-02-11 12:36:00
3:56 AM,8.6,-7.6,48,29.81,10.0,North,6.9,-,N/A,,Clear,10,2014-02-11 12:56:00
4:16 AM,12.2,-7.6,41,29.81,10.0,NNW,3.5,-,N/A,,Clear,330,2014-02-11 13:16:00
4:36 AM,8.6,-7.6,48,29.81,10.0,NW,3.5,-,N/A,,Clear,320,2014-02-11 13:36:00
4:56 AM,8.6,-5.8,52,29.82,10.0,NNW,4.6,-,N/A,,Clear,330,2014-02-11 13:56:00
5:16 AM,8.6,-5.8,52,29.81,10.0,NNE,4.6,-,N/A,,Clear,20,2014-02-11 14:16:00
5:36 AM,12.2,-7.6,41,29.81,10.0,NNW,5.8,-,N/A,,Clear,340,2014-02-11 14:36:00
5:56 AM,10.4,-7.6,44,29.81,10.0,North,5.8,-,N/A,,Clear,350,2014-02-11 14:56:00
6:16 AM,8.6,-7.6,48,29.80,10.0,North,3.5,-,N/A,,Clear,350,2014-02-11 15:16:00
6:36 AM,5.0,-7.6,56,29.80,10.0,North,3.5,-,N/A,,Clear,360,2014-02-11 15:36:00
6:56 AM,6.8,-7.6,52,29.80,10.0,Calm,Calm,-,N/A,,Clear,0,2014-02-11 15:56:00
7:16 AM,5.0,-5.8,61,29.80,10.0,Calm,Calm,-,N/A,,Clear,0,2014-02-11 16:16:00
7:36 AM,3.2,-5.8,66,29.80,10.0,North,4.6,-,N/A,,Clear,350,2014-02-11 16:36:00
7:56 AM,10.4,-5.8,48,29.80,10.0,North,4.6,-,N/A,,Clear,350,2014-02-11 16:56:00
8:16 AM,6.8,-9.4,48,29.80,10.0,Calm,Calm,-,N/A,,Clear,0,2014-02-11 17:16:00
8:36 AM,5.0,-0.4,78,29.80,10.0,Calm,Calm,-,N/A,,Clear,0,2014-02-11 17:36:00
8:56 AM,8.6,-2.2,62,29.79,10.0,North,4.6,-,N/A,,Clear,360,2014-02-11 17:56:00
9:16 AM,10.4,-2.2,57,29.79,10.0,Calm,Calm,-,N/A,,Clear,0,2014-02-11 18:16:00
9:36 AM,14.0,-0.4,53,29.78,10.0,Calm,Calm,-,N/A,,Clear,0,2014-02-11 18:36:00
9:56 AM,15.8,-5.8,38,29.78,10.0,Calm,Calm,-,N/A,,Clear,0,2014-02-11 18:56:00
10:16 AM,17.6,-7.6,32,29.78,10.0,Calm,Calm,-,N/A,,Clear,0,2014-02-11 19:16:00
10:36 AM,17.6,-7.6,32,29.78,10.0,NE,5.8,-,N/A,,Clear,50,2014-02-11 19:36:00
10:56 AM,17.6,-7.6,32,29.77,10.0,NNE,10.4,-,N/A,,Clear,30,2014-02-11 19:56:00
11:16 AM,17.6,-9.4,30,29.77,10.0,NNE,8.1,-,N/A,,Clear,30,2014-02-11 20:16:00
11:36 AM,17.6,-7.6,32,29.76,10.0,ENE,5.8,-,N/A,,Clear,70,2014-02-11 20:36:00
11:56 AM,19.4,-9.4,28,29.76,10.0,NNE,8.1,-,N/A,,Clear,30,2014-02-11 20:56:00
12:16 PM,19.4,-9.4,28,29.75,10.0,East,8.1,-,N/A,,Clear,80,2014-02-11 21:16:00
12:36 PM,19.4,-9.4,28,29.74,10.0,ENE,5.8,-,N/A,,Clear,60,2014-02-11 21:36:00
12:56 PM,19.4,-9.4,28,29.72,10.0,NE,9.2,-,N/A,,Clear,50,2014-02-11 21:56:00
1:16 PM,19.4,-9.4,28,29.71,10.0,ENE,6.9,-,N/A,,Clear,70,2014-02-11 22:16:00
1:36 PM,19.4,-9.4,28,29.69,10.0,NE,8.1,-,N/A,,Clear,50,2014-02-11 22:36:00
1:56 PM,19.4,-9.4,28,29.68,10.0,NNE,4.6,-,N/A,,Clear,30,2014-02-11 22:56:00
2:16 PM,19.4,-9.4,28,29.66,10.0,North,6.9,-,N/A,,Clear,350,2014-02-11 23:16:00
2:36 PM,19.4,-9.4,28,29.65,10.0,NE,4.6,-,N/A,,Clear,40,2014-02-11 23:36:00
2:56 PM,19.4,-9.4,28,29.63,10.0,NE,6.9,-,N/A,,Clear,40,2014-02-11 23:56:00
3:16 PM,19.4,-9.4,28,29.61,10.0,North,8.1,-,N/A,,Clear,350,2014-02-12 00:16:00
3:36 PM,17.6,-9.4,30,29.60,10.0,NNW,8.1,-,N/A,,Clear,340,2014-02-12 00:36:00
3:56 PM,17.6,-9.4,30,29.58,10.0,NNW,6.9,-,N/A,,Clear,330,2014-02-12 00:56:00
4:16 PM,17.6,-7.6,32,29.57,10.0,NNW,4.6,-,N/A,,Clear,340,2014-02-12 01:16:00
4:36 PM,15.8,-7.6,35,29.55,10.0,NW,5.8,-,N/A,,Clear,320,2014-02-12 01:36:00
4:56 PM,14.0,-7.6,38,29.53,10.0,NW,6.9,-,N/A,,Clear,320,2014-02-12 01:56:00
5:16 PM,12.2,-7.6,41,29.52,10.0,NNW,5.8,-,N/A,,Clear,330,2014-02-12 02:16:00
5:36 PM,12.2,-7.6,41,29.50,10.0,NNW,5.8,-,N/A,,Clear,340,2014-02-12 02:36:00
5:56 PM,12.2,-5.8,45,29.49,10.0,NNW,3.5,-,N/A,,Clear,330,2014-02-12 02:56:00
6:16 PM,10.4,-5.8,48,29.48,10.0,NNW,3.5,-,N/A,,Clear,340,2014-02-12 03:16:00
6:36 PM,10.4,-5.8,48,29.47,10.0,NNW,4.6,-,N/A,,Clear,330,2014-02-12 03:36:00
6:56 PM,10.4,-5.8,48,29.46,10.0,North,3.5,-,N/A,,Clear,350,2014-02-12 03:56:00
7:16 PM,10.4,-5.8,48,29.44,10.0,North,4.6,-,N/A,,Clear,360,2014-02-12 04:16:00
7:36 PM,8.6,-5.8,52,29.43,10.0,Calm,Calm,-,N/A,,Clear,0,2014-02-12 04:36:00
7:56 PM,6.8,-5.8,56,29.43,10.0,NNW,3.5,-,N/A,,Clear,340,2014-02-12 04:56:00
8:16 PM,6.8,-4.0,61,29.42,10.0,North,3.5,-,N/A,,Clear,360,2014-02-12 05:16:00
8:36 PM,5.0,-5.8,61,29.42,10.0,Calm,Calm,-,N/A,,Clear,0,2014-02-12 05:36:00
8:56 PM,5.0,-5.8,61,29.41,10.0,Calm,Calm,-,N/A,,Clear,0,2014-02-12 05:56:00
9:16 PM,5.0,-4.0,66,29.41,10.0,Calm,Calm,-,N/A,,Clear,0,2014-02-12 06:16:00
9:36 PM,3.2,-4.0,72,29.41,10.0,North,3.5,-,N/A,,Clear,360,2014-02-12 06:36:00
9:56 PM,3.2,-4.0,72,29.40,10.0,NNW,4.6,-,N/A,,Clear,340,2014-02-12 06:56:00
10:16 PM,1.4,-2.2,85,29.40,10.0,Calm,Calm,-,N/A,,Clear,0,2014-02-12 07:16:00
10:36 PM,1.4,-5.8,72,29.39,10.0,Calm,Calm,-,N/A,,Clear,0,2014-02-12 07:36:00
10:56 PM,1.4,-2.2,85,29.39,10.0,NNW,3.5,-,N/A,,Clear,330,2014-02-12 07:56:00
11:16 PM,-0.4,-5.8,78,29.39,10.0,Calm,Calm,-,N/A,,Clear,0,2014-02-12 08:16:00
11:36 PM,-0.4,-2.2,92,29.39,10.0,Calm,Calm,-,N/A,,Clear,0,2014-02-12 08:36:00
11:56 PM,-0.4,-5.8,78,29.39,10.0,NNW,5.8,-,N/A,,Partly Cloudy,330,2014-02-12 08:56:00